When you browse on this site, cookies collect data to enhance your experience and personalize the content and advertising you see.
Visit our Privacy Policy to learn more. By continuing to use the site, you agree to this use of cookies and data.

Hourly Weather Andora

Today, 10 July, Friday

Time Temperature Precipitation Wind Pressure Humidity
00:00 +14°C° 0 mm 1 mps 627 mmHg 80%
01:00 +14°C° 0.3 mm 1 mps 627 mmHg 81%
02:00 +14°C° 0.3 mm 1 mps 626 mmHg 81%
03:00 +13°C° 0.3 mm 0 mps 626 mmHg 82%
04:00 +13°C° 0.7 mm 0 mps 626 mmHg 83%
05:00 +15°C° 0.7 mm 1 mps 627 mmHg 84%
06:00 +16°C° 0 mm 1 mps 627 mmHg 86%
07:00 +19°C° 0.5 mm 1 mps 628 mmHg 76%
08:00 +20°C° 0.5 mm 1 mps 629 mmHg 66%
09:00 +22°C° 0.5 mm 1 mps 629 mmHg 56%
10:00 +23°C° 0.3 mm 2 mps 629 mmHg 53%
11:00 +23°C° 0.3 mm 2 mps 630 mmHg 50%
12:00 +24°C° 0.3 mm 3 mps 630 mmHg 48%
13:00 +23°C° 1.4 mm 2 mps 629 mmHg 55%
14:00 +21°C° 1.4 mm 2 mps 628 mmHg 63%
15:00 +20°C° 1.4 mm 2 mps 628 mmHg 70%
16:00 +19°C° 1 mm 2 mps 627 mmHg 74%
17:00 +19°C° 1 mm 1 mps 627 mmHg 79%
18:00 +18°C° 1 mm 1 mps 627 mmHg 83%
19:00 +16°C° 0.3 mm 1 mps 627 mmHg 85%
20:00 +15°C° 0.3 mm 1 mps 627 mmHg 87%
21:00 +14°C° 0.3 mm 1 mps 626 mmHg 89%
22:00 +13°C° 0 mm 1 mps 626 mmHg 90%
23:00 +13°C° 0 mm 1 mps 626 mmHg 91%

Tomorrow, 11 July, Saturday

Time Temperature Precipitation Wind Pressure Humidity
00:00 +13°C° 0 mm 1 mps 627 mmHg 91%
01:00 +13°C° 0 mm 1 mps 626 mmHg 92%
02:00 +13°C° 0 mm 1 mps 626 mmHg 92%
03:00 +12°C° 0 mm 1 mps 626 mmHg 92%
04:00 +13°C° 0 mm 1 mps 626 mmHg 91%
05:00 +13°C° 0 mm 1 mps 627 mmHg 90%
06:00 +14°C° 0 mm 1 mps 627 mmHg 89%
07:00 +15°C° 0 mm 1 mps 628 mmHg 84%
08:00 +18°C° 0 mm 1 mps 629 mmHg 79%
09:00 +19°C° 0 mm 1 mps 629 mmHg 74%
10:00 +19°C° 0.2 mm 1 mps 629 mmHg 72%
11:00 +20°C° 0.2 mm 1 mps 629 mmHg 71%
12:00 +19°C° 0.2 mm 2 mps 629 mmHg 70%
13:00 +20°C° 1.2 mm 1 mps 629 mmHg 73%
14:00 +20°C° 1.2 mm 1 mps 629 mmHg 76%
15:00 +19°C° 1.2 mm 1 mps 628 mmHg 80%
16:00 +19°C° 0.9 mm 1 mps 628 mmHg 82%
17:00 +18°C° 0.9 mm 1 mps 628 mmHg 85%
18:00 +16°C° 0.9 mm 0 mps 628 mmHg 87%
19:00 +15°C° 0.1 mm 0 mps 628 mmHg 89%
20:00 +14°C° 0.1 mm 0 mps 628 mmHg 91%
21:00 +13°C° 0.1 mm 0 mps 628 mmHg 92%
22:00 +13°C° 0 mm 0 mps 627 mmHg 93%
23:00 +12°C° 0 mm 0 mps 627 mmHg 94%

Day after tomorrow, 12 July, Sunday

Time Temperature Precipitation Wind Pressure Humidity
00:00 +12°C° 0 mm 0 mps 627 mmHg 95%
01:00 +13°C° 0 mm 1 mps 627 mmHg 95%
02:00 +13°C° 0 mm 1 mps 626 mmHg 95%
03:00 +13°C° 0 mm 1 mps 626 mmHg 95%
04:00 +14°C° 0 mm 1 mps 627 mmHg 93%
05:00 +14°C° 0 mm 1 mps 627 mmHg 90%
06:00 +14°C° 0 mm 0 mps 628 mmHg 88%
07:00 +18°C° 0 mm 1 mps 629 mmHg 81%
08:00 +20°C° 0 mm 1 mps 629 mmHg 75%
09:00 +21°C° 0 mm 1 mps 630 mmHg 68%
10:00 +22°C° 1.1 mm 1 mps 630 mmHg 67%
11:00 +21°C° 1.1 mm 2 mps 630 mmHg 67%
12:00 +21°C° 1.1 mm 2 mps 630 mmHg 66%
13:00 +23°C° 1.4 mm 1 mps 630 mmHg 66%
14:00 +23°C° 1.4 mm 1 mps 630 mmHg 66%
15:00 +23°C° 1.4 mm 1 mps 630 mmHg 66%
16:00 +21°C° 2.7 mm 1 mps 629 mmHg 73%
17:00 +20°C° 2.7 mm 1 mps 628 mmHg 80%
18:00 +17°C° 2.7 mm 2 mps 627 mmHg 87%
19:00 +16°C° 1.7 mm 1 mps 627 mmHg 87%
20:00 +15°C° 1.7 mm 1 mps 627 mmHg 87%
21:00 +15°C° 1.7 mm 1 mps 628 mmHg 86%
22:00 +14°C° 0.8 mm 1 mps 628 mmHg 87%
23:00 +14°C° 0.8 mm 1 mps 628 mmHg 87%

13 July, Monday

Time Temperature Precipitation Wind Pressure Humidity
00:00 +14°C° 0.8 mm 1 mps 627 mmHg 88%
01:00 +14°C° 0.5 mm 1 mps 627 mmHg 88%
02:00 +13°C° 0.5 mm 1 mps 627 mmHg 88%
03:00 +13°C° 0.5 mm 1 mps 627 mmHg 89%
04:00 +14°C° 0.2 mm 1 mps 627 mmHg 88%
05:00 +14°C° 0.2 mm 1 mps 627 mmHg 86%
06:00 +15°C° 0.2 mm 1 mps 628 mmHg 85%
07:00 +16°C° 0.3 mm 1 mps 628 mmHg 80%
08:00 +19°C° 0.3 mm 1 mps 629 mmHg 75%
09:00 +20°C° 0.3 mm 1 mps 630 mmHg 70%
10:00 +20°C° 1.4 mm 1 mps 629 mmHg 72%
11:00 +20°C° 1.4 mm 1 mps 629 mmHg 75%
12:00 +20°C° 1.4 mm 1 mps 629 mmHg 77%
13:00 +20°C° 2.3 mm 1 mps 629 mmHg 78%
14:00 +20°C° 2.3 mm 1 mps 628 mmHg 80%
15:00 +20°C° 2.3 mm 1 mps 628 mmHg 82%
16:00 +19°C° 1.6 mm 1 mps 628 mmHg 85%
17:00 +18°C° 1.6 mm 1 mps 627 mmHg 87%
18:00 +16°C° 1.6 mm 1 mps 627 mmHg 90%
19:00 +15°C° 0.2 mm 1 mps 627 mmHg 92%
20:00 +14°C° 0.2 mm 1 mps 627 mmHg 93%
21:00 +13°C° 0.2 mm 1 mps 627 mmHg 95%
22:00 +13°C° 0 mm 1 mps 626 mmHg 95%
23:00 +12°C° 0 mm 1 mps 626 mmHg 94%

14 July, Tuesday

Time Temperature Precipitation Wind Pressure Humidity
00:00 +12°C° 0 mm 1 mps 626 mmHg 94%
01:00 +12°C° 0 mm 1 mps 626 mmHg 93%
02:00 +12°C° 0 mm 1 mps 626 mmHg 93%
03:00 +12°C° 0 mm 1 mps 625 mmHg 93%
04:00 +12°C° 0 mm 1 mps 626 mmHg 92%
05:00 +13°C° 0 mm 1 mps 626 mmHg 92%
06:00 +12°C° 0 mm 0 mps 626 mmHg 92%
07:00 +14°C° 0.2 mm 1 mps 627 mmHg 88%
08:00 +15°C° 0.2 mm 1 mps 627 mmHg 84%
09:00 +16°C° 0.2 mm 1 mps 628 mmHg 81%
10:00 +16°C° 0.5 mm 1 mps 627 mmHg 82%
11:00 +16°C° 0.5 mm 1 mps 627 mmHg 82%
12:00 +15°C° 0.5 mm 1 mps 627 mmHg 83%
13:00 +15°C° 0.7 mm 1 mps 626 mmHg 83%
14:00 +15°C° 0.7 mm 1 mps 626 mmHg 83%
15:00 +15°C° 0.7 mm 1 mps 626 mmHg 84%
16:00 +15°C° 0.7 mm 1 mps 626 mmHg 85%
17:00 +15°C° 0.7 mm 1 mps 626 mmHg 86%
18:00 +14°C° 0.7 mm 1 mps 625 mmHg 87%
19:00 +14°C° 0.1 mm 1 mps 625 mmHg 89%
20:00 +13°C° 0.1 mm 1 mps 625 mmHg 91%
21:00 +12°C° 0.1 mm 1 mps 625 mmHg 92%
22:00 +12°C° 0 mm 1 mps 625 mmHg 93%
23:00 +11°C° 0 mm 1 mps 625 mmHg 94%

15 July, Wednesday

Time Temperature Precipitation Wind Pressure Humidity
00:00 +11°C° 0 mm 1 mps 625 mmHg 94%
01:00 +11°C° 0 mm 1 mps 625 mmHg 94%
02:00 +11°C° 0 mm 1 mps 625 mmHg 94%
03:00 +10°C° 0 mm 1 mps 625 mmHg 94%
04:00 +11°C° 0 mm 1 mps 625 mmHg 93%
05:00 +11°C° 0 mm 1 mps 626 mmHg 91%
06:00 +12°C° 0 mm 1 mps 626 mmHg 90%
07:00 +13°C° 0 mm 1 mps 627 mmHg 85%
08:00 +14°C° 0 mm 1 mps 627 mmHg 80%
09:00 +15°C° 0 mm 1 mps 628 mmHg 75%
10:00 +16°C° 0.1 mm 1 mps 628 mmHg 74%
11:00 +16°C° 0.1 mm 1 mps 628 mmHg 73%
12:00 +18°C° 0.1 mm 1 mps 628 mmHg 72%
13:00 +16°C° 0.2 mm 1 mps 628 mmHg 73%
14:00 +16°C° 0.2 mm 1 mps 628 mmHg 74%
15:00 +16°C° 0.2 mm 1 mps 627 mmHg 75%
16:00 +16°C° 0.1 mm 1 mps 627 mmHg 79%
17:00 +15°C° 0.1 mm 1 mps 627 mmHg 82%
18:00 +14°C° 0.1 mm 1 mps 627 mmHg 86%
19:00 +13°C° 0.1 mm 1 mps 627 mmHg 88%
20:00 +13°C° 0.1 mm 1 mps 627 mmHg 90%
21:00 +12°C° 0.1 mm 1 mps 627 mmHg 91%
22:00 +12°C° 0 mm 1 mps 627 mmHg 92%
23:00 +11°C° 0 mm 1 mps 627 mmHg 92%
Show more